Radiation Dose at Monitoring Post of Fukushima Daini Nuclear Power Station
Date,Time,MP-1(microSv/h),MP-2(microSv/h),MP-3(microSv/h),MP-4(microSv/h),MP-5(microSv/h),MP-6(microSv/h),MP-7(microSv/h),Wind Direction,Wind Velocity(m/s),Rain
2017/11/24,00:00,0.332,0.212,0.348,0.325,0.310,0.169,0.101,northwest,4.6,No
2017/11/24,00:10,0.331,0.212,0.346,0.324,0.310,0.169,0.101,northwest,4.8,No
2017/11/24,00:20,0.331,0.212,0.346,0.325,0.310,0.169,0.101,northwest,5.1,No
2017/11/24,00:30,0.331,0.211,0.346,0.325,0.310,0.169,0.100,north-northwest,4.8,No
2017/11/24,00:40,0.331,0.211,0.346,0.324,0.310,0.168,0.101,north-northwest,3.1,No
2017/11/24,00:50,0.330,0.211,0.346,0.325,0.309,0.169,0.102,north,2.9,No
2017/11/24,01:00,0.330,0.211,0.345,0.323,0.309,0.169,0.101,north,2.9,No
2017/11/24,01:10,0.331,0.210,0.346,0.324,0.309,0.169,0.101,north,2.3,No
2017/11/24,01:20,0.331,0.210,0.344,0.325,0.309,0.169,0.101,north,1.5,No
2017/11/24,01:30,0.331,0.211,0.345,0.324,0.309,0.169,0.100,north-northwest,0.6,No
2017/11/24,01:40,0.329,0.211,0.345,0.324,0.309,0.168,0.102,north-northwest,0.8,No
2017/11/24,01:50,0.331,0.210,0.345,0.324,0.310,0.169,0.100,north,1.7,No
2017/11/24,02:00,0.329,0.210,0.346,0.324,0.309,0.169,0.100,north-northwest,1.7,No
2017/11/24,02:10,0.331,0.210,0.345,0.323,0.309,0.168,0.101,north-northwest,2.2,No
2017/11/24,02:20,0.329,0.210,0.346,0.323,0.308,0.168,0.101,north-northwest,2.2,No
2017/11/24,02:30,0.331,0.211,0.345,0.324,0.310,0.168,0.100,north-northwest,2.8,No
2017/11/24,02:40,0.330,0.210,0.345,0.325,0.309,0.168,0.101,north,3.0,No
2017/11/24,02:50,0.331,0.209,0.343,0.324,0.309,0.170,0.101,north-northwest,2.4,No
2017/11/24,03:00,0.332,0.211,0.345,0.323,0.310,0.168,0.101,northwest,4.0,No
2017/11/24,03:10,0.331,0.210,0.346,0.323,0.308,0.168,0.101,north-northwest,7.1,No
2017/11/24,03:20,0.329,0.211,0.344,0.325,0.310,0.169,0.101,northwest,10.0,No
2017/11/24,03:30,0.330,0.209,0.345,0.325,0.311,0.168,0.101,northwest,7.7,No
2017/11/24,03:40,0.331,0.209,0.345,0.324,0.310,0.168,0.101,west-northwest,4.8,No
2017/11/24,03:50,0.329,0.211,0.347,0.324,0.309,0.169,0.101,west-northwest,6.2,No
2017/11/24,04:00,0.331,0.212,0.345,0.324,0.310,0.168,0.101,west-northwest,7.9,No
2017/11/24,04:10,0.330,0.211,0.345,0.325,0.310,0.168,0.101,west,6.6,No
2017/11/24,04:20,0.329,0.210,0.345,0.324,0.308,0.169,0.101,west,9.3,No
2017/11/24,04:30,0.330,0.210,0.346,0.322,0.309,0.168,0.101,west-northwest,9.6,No
2017/11/24,04:40,0.329,0.210,0.345,0.323,0.309,0.169,0.102,west-northwest,7.3,No
2017/11/24,04:50,0.329,0.210,0.345,0.324,0.310,0.169,0.100,west-northwest,5.9,No
2017/11/24,05:00,0.331,0.210,0.344,0.323,0.309,0.169,0.101,west-southwest,6.2,No
2017/11/24,05:10,0.331,0.210,0.345,0.324,0.309,0.169,0.101,south-southeast,4.0,No
2017/11/24,05:20,0.329,0.211,0.345,0.324,0.310,0.168,0.101,south,5.1,No
2017/11/24,05:30,0.330,0.211,0.346,0.324,0.309,0.169,0.101,south-southwest,6.5,No
2017/11/24,05:40,0.330,0.210,0.345,0.323,0.308,0.168,0.100,south-southwest,4.5,No
2017/11/24,05:50,0.332,0.211,0.346,0.324,0.309,0.169,0.101,south-southwest,4.5,No
2017/11/24,06:00,0.330,0.211,0.346,0.324,0.308,0.168,0.100,south-southwest,5.9,No
2017/11/24,06:10,0.329,0.210,0.344,0.325,0.309,0.169,0.100,south,5.4,No
2017/11/24,06:20,0.329,0.210,0.343,0.325,0.309,0.168,0.101,south,5.9,No
2017/11/24,06:30,0.331,0.210,0.345,0.323,0.308,0.168,0.101,south-southwest,4.0,No
2017/11/24,06:40,0.329,0.209,0.345,0.324,0.307,0.169,0.101,south,3.7,No
2017/11/24,06:50,0.329,0.211,0.345,0.323,0.310,0.168,0.101,south,4.3,No
2017/11/24,07:00,0.329,0.211,0.345,0.324,0.308,0.169,0.101,south-southwest,3.7,No
2017/11/24,07:10,0.331,0.211,0.344,0.325,0.308,0.168,0.101,southwest,3.3,No
2017/11/24,07:20,0.331,0.211,0.345,0.324,0.308,0.168,0.101,west,2.8,No
2017/11/24,07:30,0.330,0.209,0.344,0.325,0.309,0.168,0.100,west-northwest,3.0,No
2017/11/24,07:40,0.329,0.210,0.345,0.323,0.309,0.168,0.101,west-northwest,2.8,No
2017/11/24,07:50,0.330,0.210,0.344,0.324,0.309,0.168,0.100,south-southeast,2.4,No
2017/11/24,08:00,0.330,0.210,0.345,0.322,0.308,0.168,0.100,south-southeast,2.6,No
2017/11/24,08:10,0.330,0.211,0.345,0.323,0.309,0.168,0.100,-,CALM,No
2017/11/24,08:20,0.329,0.211,0.346,0.323,0.309,0.168,0.101,north-northwest,1.3,No
2017/11/24,08:30,0.329,0.211,0.344,0.322,0.309,0.168,0.100,north,0.9,No
2017/11/24,08:40,0.331,0.212,0.344,0.323,0.309,0.167,0.100,north,2.2,No
2017/11/24,08:50,0.330,0.210,0.345,0.321,0.309,0.169,0.100,north,1.3,No
2017/11/24,09:00,0.328,0.211,0.344,0.322,0.309,0.167,0.100,north,2.1,No
2017/11/24,09:10,0.330,0.209,0.345,0.321,0.307,0.168,0.100,west-northwest,3.2,No
2017/11/24,09:20,0.329,0.210,0.345,0.324,0.308,0.169,0.102,west-northwest,1.1,No
2017/11/24,09:30,0.330,0.210,0.343,0.321,0.310,0.168,0.100,southeast,2.0,No
2017/11/24,09:40,0.328,0.209,0.344,0.324,0.310,0.169,0.100,southeast,1.5,No
2017/11/24,09:50,0.329,0.210,0.345,0.322,0.309,0.169,0.101,north-northwest,2.0,No
2017/11/24,10:00,0.328,0.210,0.344,0.324,0.309,0.169,0.101,west-northwest,5.1,No
2017/11/24,10:10,0.329,0.210,0.343,0.322,0.309,0.170,0.101,west-northwest,4.8,No
2017/11/24,10:20,0.326,0.211,0.346,0.324,0.307,0.169,0.101,west-northwest,3.7,No
2017/11/24,10:30,0.329,0.211,0.345,0.323,0.308,0.169,0.101,west,3.6,No
2017/11/24,10:40,0.328,0.211,0.344,0.324,0.308,0.169,0.101,west-southwest,5.0,No
2017/11/24,10:50,0.328,0.208,0.346,0.323,0.310,0.168,0.100,west,4.2,No
2017/11/24,11:00,0.329,0.210,0.344,0.323,0.307,0.169,0.100,west-northwest,6.7,No
2017/11/24,11:10,0.330,0.210,0.345,0.324,0.311,0.169,0.100,west-northwest,7.4,No
2017/11/24,11:20,0.329,0.211,0.344,0.324,0.310,0.170,0.101,west,6.7,No
2017/11/24,11:30,0.331,0.209,0.345,0.323,0.311,0.170,0.101,west-southwest,7.1,No
2017/11/24,11:40,0.328,0.210,0.346,0.324,0.309,0.171,0.101,west,8.3,No
2017/11/24,11:50,0.329,0.211,0.345,0.324,0.312,0.169,0.101,west,7.3,No
2017/11/24,12:00,0.329,0.210,0.344,0.324,0.308,0.170,0.101,west-northwest,10.6,No
2017/11/24,12:10,0.330,0.212,0.346,0.324,0.311,0.170,0.101,west-northwest,9.6,No
2017/11/24,12:20,0.328,0.210,0.343,0.324,0.307,0.170,0.101,west-northwest,7.7,No
2017/11/24,12:30,0.330,0.210,0.347,0.325,0.312,0.170,0.100,west-northwest,8.6,No
2017/11/24,12:40,0.329,0.211,0.344,0.324,0.309,0.169,0.100,northwest,10.6,No
2017/11/24,12:50,0.330,0.210,0.346,0.324,0.311,0.169,0.100,west-northwest,9.2,No
2017/11/24,13:00,0.331,0.211,0.345,0.324,0.309,0.171,0.100,west-northwest,9.5,No
2017/11/24,13:10,0.330,0.210,0.347,0.325,0.311,0.170,0.101,west,10.9,No
2017/11/24,13:20,0.333,0.211,0.348,0.325,0.312,0.170,0.101,west,9.3,No
2017/11/24,13:30,0.331,0.212,0.345,0.324,0.312,0.171,0.100,west-northwest,7.9,No
2017/11/24,13:40,0.332,0.211,0.347,0.325,0.313,0.168,0.100,west-northwest,8.1,No
2017/11/24,13:50,0.333,0.210,0.346,0.324,0.309,0.170,0.101,northwest,9.0,No
2017/11/24,14:00,0.333,0.212,0.348,0.327,0.312,0.170,0.100,west-northwest,7.8,No
2017/11/24,14:10,0.332,0.210,0.347,0.325,0.311,0.169,0.101,west-northwest,7.0,No
2017/11/24,14:20,0.334,0.212,0.347,0.326,0.311,0.170,0.101,west-northwest,7.5,No
2017/11/24,14:30,0.331,0.211,0.347,0.327,0.313,0.170,0.101,west-northwest,4.9,No
2017/11/24,14:40,0.330,0.210,0.349,0.324,0.313,0.170,0.101,west-northwest,6.4,No
2017/11/24,14:50,0.332,0.213,0.348,0.327,0.313,0.170,0.101,west-northwest,7.0,No
2017/11/24,15:00,0.334,0.211,0.348,0.326,0.312,0.170,0.101,west-northwest,8.2,No
2017/11/24,15:10,0.333,0.211,0.347,0.325,0.312,0.169,0.101,west-northwest,4.5,No
2017/11/24,15:20,0.333,0.212,0.348,0.328,0.311,0.169,0.101,northwest,5.9,No
2017/11/24,15:30,0.334,0.212,0.347,0.326,0.312,0.169,0.100,northwest,6.1,No
2017/11/24,15:40,0.332,0.212,0.346,0.326,0.315,0.170,0.101,west-northwest,8.1,No
2017/11/24,15:50,0.332,0.211,0.349,0.326,0.313,0.171,0.101,west-northwest,7.8,No
2017/11/24,16:00,0.333,0.211,0.348,0.327,0.312,0.170,0.101,west-northwest,5.3,No
2017/11/24,16:10,0.333,0.212,0.347,0.326,0.313,0.171,0.102,west-northwest,5.2,No
2017/11/24,16:20,0.332,0.212,0.348,0.327,0.313,0.171,0.102,west-northwest,8.1,No
2017/11/24,16:30,0.333,0.212,0.349,0.328,0.313,0.171,0.102,northwest,2.5,No
2017/11/24,16:40,0.333,0.213,0.350,0.326,0.313,0.171,0.102,north-northwest,1.9,No
2017/11/24,16:50,0.333,0.211,0.348,0.327,0.313,0.171,0.101,southwest,0.8,No
2017/11/24,17:00,0.333,0.212,0.346,0.325,0.311,0.172,0.101,west-northwest,0.9,No
2017/11/24,17:10,0.332,0.210,0.350,0.327,0.310,0.171,0.101,northwest,1.6,No
2017/11/24,17:20,0.333,0.211,0.346,0.328,0.311,0.172,0.103,west-northwest,4.3,No
2017/11/24,17:30,0.333,0.213,0.347,0.326,0.311,0.171,0.102,west-northwest,5.9,No
2017/11/24,17:40,0.333,0.211,0.347,0.327,0.312,0.170,0.102,west,7.3,No
2017/11/24,17:50,0.332,0.212,0.349,0.327,0.311,0.171,0.101,west-northwest,8.8,No
2017/11/24,18:00,0.333,0.211,0.348,0.326,0.312,0.171,0.101,west-northwest,10.9,No
2017/11/24,18:10,0.333,0.212,0.347,0.326,0.312,0.171,0.101,west,12.6,No
2017/11/24,18:20,0.331,0.212,0.348,0.327,0.312,0.169,0.101,west-northwest,12.6,No
2017/11/24,18:30,0.333,0.212,0.348,0.328,0.310,0.171,0.102,west-northwest,11.7,No
2017/11/24,18:40,0.333,0.212,0.348,0.325,0.312,0.171,0.101,west-northwest,11.8,No
2017/11/24,18:50,0.333,0.212,0.347,0.327,0.312,0.170,0.101,west,11.5,No
2017/11/24,19:00,0.332,0.212,0.350,0.327,0.312,0.171,0.102,west,10.3,No
2017/11/24,19:10,0.332,0.211,0.349,0.327,0.312,0.171,0.102,west,10.3,No
2017/11/24,19:20,0.334,0.212,0.349,0.327,0.312,0.170,0.102,west,11.5,No
2017/11/24,19:30,0.333,0.212,0.347,0.327,0.312,0.171,0.100,west,11.2,No
2017/11/24,19:40,0.332,0.212,0.348,0.327,0.313,0.171,0.101,west,10.4,No
2017/11/24,19:50,0.334,0.211,0.349,0.326,0.311,0.171,0.100,west,9.8,No
2017/11/24,20:00,0.335,0.212,0.348,0.326,0.310,0.171,0.101,west,10.1,No
2017/11/24,20:10,0.333,0.211,0.348,0.326,0.311,0.170,0.102,west,8.2,No
2017/11/24,20:20,0.333,0.212,0.349,0.326,0.311,0.171,0.101,west,9.0,No
2017/11/24,20:30,0.333,0.211,0.350,0.328,0.312,0.170,0.101,west,9.8,No
2017/11/24,20:40,0.332,0.212,0.349,0.327,0.313,0.171,0.101,west,9.2,No
2017/11/24,20:50,0.333,0.213,0.348,0.327,0.311,0.171,0.101,west,6.2,No
2017/11/24,21:00,0.332,0.212,0.348,0.327,0.311,0.171,0.101,west,7.0,No
2017/11/24,21:10,0.333,0.212,0.349,0.328,0.312,0.170,0.102,west,7.5,No
2017/11/24,21:20,0.334,0.212,0.349,0.327,0.311,0.171,0.101,west,6.4,No
2017/11/24,21:30,0.334,0.214,0.348,0.326,0.312,0.171,0.102,west,6.4,No
2017/11/24,21:40,0.334,0.212,0.347,0.326,0.310,0.171,0.101,west,7.5,No
2017/11/24,21:50,0.333,0.211,0.349,0.327,0.308,0.171,0.102,west,10.3,No
2017/11/24,22:00,0.333,0.212,0.348,0.326,0.311,0.171,0.102,west,9.0,No
2017/11/24,22:10,0.333,0.213,0.347,0.327,0.311,0.170,0.102,west,9.8,No
2017/11/24,22:20,0.332,0.212,0.350,0.326,0.310,0.172,0.101,west,9.3,No
2017/11/24,22:30,0.333,0.213,0.348,0.326,0.310,0.170,0.101,west-northwest,10.3,No
2017/11/24,22:40,0.333,0.212,0.348,0.327,0.311,0.171,0.101,west,9.8,No
2017/11/24,22:50,0.333,0.212,0.347,0.327,0.310,0.171,0.101,west,9.8,No
2017/11/24,23:00,0.333,0.211,0.349,0.327,0.311,0.170,0.103,west,7.6,No
2017/11/24,23:10,0.333,0.212,0.349,0.328,0.312,0.171,0.102,west,4.2,No
2017/11/24,23:20,0.332,0.212,0.348,0.327,0.311,0.170,0.101,west-southwest,3.3,No
2017/11/24,23:30,0.334,0.212,0.348,0.328,0.312,0.171,0.101,west-southwest,7.1,No
2017/11/24,23:40,0.334,0.213,0.349,0.328,0.311,0.171,0.102,west,7.0,No
2017/11/24,23:50,0.333,0.212,0.350,0.327,0.310,0.172,0.102,west,6.6,No
